TimeCST,TemperatureF,Dew PointF,Humidity,Sea Level PressureIn,VisibilityMPH,Wind Direction,Wind SpeedMPH,Gust SpeedMPH,PrecipitationIn,Events,Conditions,WindDirDegrees,DateUTC
12:00 AM,51.8,48.2,88,30.09,1.2,Calm,Calm,-,N/A,,Mostly Cloudy,0,2012-12-06 06:00:00
12:16 AM,51.8,50.0,94,30.08,9.0,Calm,Calm,-,N/A,,Mostly Cloudy,0,2012-12-06 06:16:00
12:49 AM,50.0,48.2,94,30.07,8.0,Calm,Calm,-,N/A,,Mostly Cloudy,0,2012-12-06 06:49:00
12:53 AM,51.1,48.9,92,30.07,9.0,Calm,Calm,-,N/A,,Mostly Cloudy,0,2012-12-06 06:53:00
1:07 AM,51.8,48.2,88,30.07,7.0,Calm,Calm,-,N/A,,Scattered Clouds,0,2012-12-06 07:07:00
1:53 AM,51.1,48.9,92,30.06,10.0,Calm,Calm,-,N/A,,Partly Cloudy,0,2012-12-06 07:53:00
2:53 AM,48.9,46.9,93,30.05,8.0,Calm,Calm,-,N/A,,Clear,0,2012-12-06 08:53:00
3:53 AM,48.0,46.0,93,30.04,9.0,Calm,Calm,-,N/A,,Clear,0,2012-12-06 09:53:00
4:53 AM,46.9,44.1,90,30.04,9.0,Calm,Calm,-,N/A,,Clear,0,2012-12-06 10:53:00
5:53 AM,46.0,44.1,93,30.06,8.0,Calm,Calm,-,N/A,,Clear,0,2012-12-06 11:53:00
6:53 AM,46.0,44.1,93,30.08,6.0,Calm,Calm,-,N/A,,Clear,0,2012-12-06 12:53:00
7:53 AM,55.0,52.0,89,30.08,10.0,Calm,Calm,-,N/A,,Clear,0,2012-12-06 13:53:00
8:53 AM,63.0,55.0,75,30.09,10.0,ENE,3.5,-,N/A,,Clear,60,2012-12-06 14:53:00
9:53 AM,71.1,57.9,63,30.08,10.0,ESE,3.5,-,N/A,,Clear,110,2012-12-06 15:53:00
10:53 AM,75.0,57.0,53,30.06,10.0,ESE,8.1,-,N/A,,Clear,110,2012-12-06 16:53:00
11:53 AM,75.9,55.9,50,30.03,10.0,East,8.1,-,N/A,,Clear,90,2012-12-06 17:53:00
12:53 PM,78.1,55.0,45,30.00,10.0,Variable,4.6,-,N/A,,Clear,0,2012-12-06 18:53:00
1:53 PM,75.0,54.0,48,29.99,10.0,Variable,3.5,-,N/A,,Scattered Clouds,0,2012-12-06 19:53:00
2:53 PM,75.9,54.0,46,29.99,10.0,ENE,4.6,-,N/A,,Partly Cloudy,60,2012-12-06 20:53:00
3:53 PM,73.9,54.0,50,29.99,10.0,Calm,Calm,-,N/A,,Clear,0,2012-12-06 21:53:00
4:53 PM,64.0,57.0,78,29.99,10.0,Calm,Calm,-,N/A,,Partly Cloudy,0,2012-12-06 22:53:00
5:53 PM,60.1,55.9,86,30.01,10.0,Calm,Calm,-,N/A,,Mostly Cloudy,0,2012-12-06 23:53:00
7:53 PM,57.9,54.0,87,30.02,10.0,Calm,Calm,-,N/A,,Mostly Cloudy,0,2012-12-07 01:53:00
8:53 PM,57.0,54.0,89,30.01,10.0,NE,3.5,-,N/A,,Scattered Clouds,40,2012-12-07 02:53:00
9:53 PM,57.9,54.0,87,30.02,10.0,ENE,3.5,-,N/A,,Scattered Clouds,70,2012-12-07 03:53:00
10:53 PM,59.0,55.0,87,30.02,10.0,NE,3.5,-,N/A,,Partly Cloudy,50,2012-12-07 04:53:00
11:53 PM,59.0,55.0,87,30.01,10.0,Calm,Calm,-,N/A,,Partly Cloudy,0,2012-12-07 05:53:00